Flag for U.S.A. Weather past 2 weeks in Charleston, South Carolina, U.S.A.

Now
75 °F

Passing clouds.


Feels Like: 73 °F
Forecast: 74 / 89 °F
Wind: 5 mph from North

Location: Charleston Air Force Base Reporting Station

Current Time: Sep 2, 2015 at 5:26:08 AM

Latest Report: Sep 2, 2015 at 4:56 AM


Visibility: 10 mi

Pressure: 30.06 "Hg

Humidity: 94%

Dew point: 73 °F

Location of CharlestonLocation

Historic Weather in Charleston — Graph

°F

Charleston temperature yesterday

Maximum temperature yesterday: 89 °F (at 2:56 PM)
Minimum temperature yesterday: 72 °F (at 4:56 AM)
Average temperature yesterday: 80 °F

Past Weeks' High & Low Weather Summary

 TemperatureHumidityPressure
High93 °F (Aug 25, 2:56 PM)100% (Aug 31, 7:56 AM)30.17 "Hg (Aug 31, 7:56 AM)
Low71 °F (Aug 24, 6:56 AM)44% (Aug 26, 1:56 PM)29.82 "Hg (Aug 25, 4:56 PM)
Average79 °F81%30.01 "Hg
* Reported Aug 18 3:56 AM — Sep 2 3:56 AM, Charleston, Weather by CustomWeather, © 2015

Note: Actual official high and low records may vary slightly from our data, if they occured in-between our weather recording intervals... More about our weather records

Advertising

Charleston weather history for previous 24 hours

 ConditionsComfort  
Time TempWeatherWind HumidityBarometerVisibility
3:56 AM
Wed, Sep 2
76 °FPassing clouds.No wind94%30.06 "Hg10 mi
2:56 AM77 °FPassing clouds.No wind90%30.06 "Hg10 mi
1:56 AM78 °FClear.No wind87%30.07 "Hg10 mi
12:56 AM78 °FPassing clouds.No wind87%30.08 "Hg10 mi
11:56 PM
Tue, Sep 1
79 °FPassing clouds.No wind84%30.08 "Hg10 mi
10:56 PM78 °FPassing clouds.No wind87%30.08 "Hg10 mi
9:56 PM80 °FPassing clouds.5 mph81%30.08 "Hg10 mi
8:56 PM81 °FMostly cloudy.5 mph79%30.07 "Hg10 mi
7:56 PM81 °FPartly sunny.6 mph77%30.06 "Hg10 mi
6:56 PM82 °FPartly sunny.9 mph72%30.06 "Hg10 mi
4:56 PM85 °FPartly sunny.13 mph68%30.06 "Hg10 mi
3:56 PM89 °FBroken clouds.8 mph55%30.06 "Hg10 mi
2:56 PM89 °FBroken clouds.8 mph48%30.07 "Hg10 mi
1:56 PM87 °FBroken clouds.No wind53%30.08 "Hg10 mi
12:56 PM87 °FBroken clouds.No wind55%30.10 "Hg10 mi
11:56 AM86 °FScattered clouds.3 mph61%30.11 "Hg10 mi
10:56 AM85 °FPassing clouds.5 mph63%30.11 "Hg10 mi
9:56 AM82 °FPassing clouds.6 mph70%30.11 "Hg10 mi
8:56 AM78 °FPassing clouds.8 mph79%30.12 "Hg10 mi
7:56 AM75 °FPassing clouds.3 mph88%30.11 "Hg10 mi
6:56 AM72 °FPassing clouds.No wind93%30.09 "Hg10 mi
5:56 AM72 °FPassing clouds.No wind93%30.06 "Hg10 mi
Weather by CustomWeather, © 2015

See weather overviewHow to use our weather pages